TimeMST,TemperatureF,Dew PointF,Humidity,Sea Level PressureIn,VisibilityMPH,Wind Direction,Wind SpeedMPH,Gust SpeedMPH,PrecipitationIn,Events,Conditions,WindDirDegrees,DateUTC
12:53 AM,28.9,14.0,54,29.79,10.0,SW,26.5,35.7,N/A,,Clear,230,2013-01-08 07:53:00
1:53 AM,30.0,15.1,54,29.81,10.0,SW,19.6,-,N/A,,Clear,220,2013-01-08 08:53:00
2:53 AM,28.9,15.1,56,29.82,10.0,SW,25.3,32.2,N/A,,Clear,220,2013-01-08 09:53:00
3:53 AM,30.0,16.0,56,29.82,10.0,SSW,25.3,31.1,N/A,,Clear,210,2013-01-08 10:53:00
4:53 AM,30.9,16.0,54,29.85,10.0,SW,23.0,32.2,N/A,,Clear,220,2013-01-08 11:53:00
5:53 AM,32.0,17.1,54,29.88,10.0,SW,23.0,31.1,N/A,,Overcast,220,2013-01-08 12:53:00
6:53 AM,28.9,17.1,61,29.88,10.0,SW,21.9,32.2,N/A,,Clear,220,2013-01-08 13:53:00
7:53 AM,28.9,17.1,61,29.92,10.0,SSW,12.7,-,N/A,,Clear,210,2013-01-08 14:53:00
8:53 AM,32.0,17.1,54,29.94,10.0,SSW,10.4,-,N/A,,Clear,200,2013-01-08 15:53:00
9:53 AM,35.1,18.0,50,29.97,10.0,South,20.7,24.2,N/A,,Clear,190,2013-01-08 16:53:00
10:53 AM,39.9,17.1,40,29.96,10.0,WSW,13.8,26.5,N/A,,Clear,240,2013-01-08 17:53:00
11:53 AM,39.2,15.8,39,29.92,10.0,West,21.9,34.5,N/A,,Clear,260,2013-01-08 18:53:00
12:53 PM,42.1,17.1,37,29.95,10.0,West,21.9,28.8,N/A,,Clear,270,2013-01-08 19:53:00
1:53 PM,42.1,17.1,37,29.97,10.0,West,27.6,38.0,N/A,,Clear,260,2013-01-08 20:53:00
2:53 PM,41.0,17.1,38,30.01,10.0,West,20.7,31.1,N/A,,Clear,270,2013-01-08 21:53:00
3:53 PM,39.9,16.0,38,30.04,10.0,West,17.3,-,N/A,,Clear,260,2013-01-08 22:53:00
4:53 PM,34.0,19.0,54,30.08,10.0,WSW,11.5,-,N/A,,Clear,240,2013-01-08 23:53:00
5:53 PM,32.0,19.0,59,30.10,10.0,SW,16.1,-,N/A,,Clear,230,2013-01-09 00:53:00
6:53 PM,28.9,17.1,61,30.15,10.0,WSW,13.8,-,N/A,,Clear,240,2013-01-09 01:53:00
7:53 PM,28.0,19.0,69,30.17,10.0,SW,13.8,-,N/A,,Clear,220,2013-01-09 02:53:00
8:53 PM,28.9,19.0,67,30.15,10.0,SW,19.6,-,N/A,,Clear,230,2013-01-09 03:53:00
9:53 PM,30.9,18.0,59,30.16,10.0,SW,24.2,31.1,N/A,,Clear,230,2013-01-09 04:53:00
10:53 PM,30.9,18.0,59,30.17,10.0,WSW,20.7,28.8,N/A,,Clear,240,2013-01-09 05:53:00
11:53 PM,30.9,18.0,59,30.20,10.0,SW,19.6,26.5,N/A,,Clear,220,2013-01-09 06:53:00